Time,TemperatureF,DewpointF,PressureIn,WindDirection,WindDirectionDegrees,WindSpeedMPH,WindSpeedGustMPH,Humidity,HourlyPrecipIn,Conditions,Clouds,dailyrainin,SoftwareType,DateUTC
2013-12-20 00:01:00,36.4,31.4,30.03,South,191,0.0,0.0,82,0.00,,---,0.00,VWS V13.01,2013-12-20 05:01:00,
2013-12-20 00:06:00,36.2,31.5,30.03,South,191,0.0,0.0,83,0.00,,---,0.00,VWS V13.01,2013-12-20 05:06:00,
2013-12-20 00:11:00,36.0,31.4,30.03,South,191,0.0,1.0,83,0.00,,---,0.00,VWS V13.01,2013-12-20 05:11:00,
2013-12-20 00:16:00,35.9,31.5,30.03,South,191,0.0,1.0,84,0.00,,---,0.00,VWS V13.01,2013-12-20 05:16:00,
2013-12-20 00:21:00,35.8,31.5,30.03,South,191,0.0,0.0,84,0.00,,---,0.00,VWS V13.01,2013-12-20 05:21:00,
2013-12-20 00:26:00,35.7,31.4,30.03,South,191,0.0,0.0,84,0.00,,---,0.00,VWS V13.01,2013-12-20 05:26:00,
2013-12-20 00:31:00,35.7,31.6,30.02,South,191,0.0,0.0,85,0.00,,---,0.00,VWS V13.01,2013-12-20 05:31:00,
2013-12-20 00:36:00,35.6,31.5,30.02,South,191,0.0,0.0,85,0.00,,---,0.00,VWS V13.01,2013-12-20 05:36:00,
2013-12-20 00:41:00,35.5,31.1,30.02,South,191,0.0,0.0,84,0.00,,---,0.00,VWS V13.01,2013-12-20 05:41:00,
2013-12-20 00:46:00,35.4,31.1,30.02,South,191,0.0,0.0,84,0.00,,---,0.00,VWS V13.01,2013-12-20 05:46:00,
2013-12-20 00:47:00,35.4,31.1,30.02,South,191,0.0,0.0,84,0.00,,---,0.00,VWS V13.01,2013-12-20 05:47:00,
2013-12-20 00:52:00,35.3,31.2,30.02,South,191,0.0,0.0,85,0.00,,---,0.00,VWS V13.01,2013-12-20 05:52:00,
2013-12-20 00:57:00,35.2,31.1,30.02,South,191,0.0,0.0,85,0.00,,---,0.00,VWS V13.01,2013-12-20 05:57:00,
2013-12-20 01:02:00,35.2,31.1,30.02,South,191,0.0,0.0,85,0.00,,---,0.00,VWS V13.01,2013-12-20 06:02:00,
2013-12-20 01:07:00,35.2,31.1,30.02,South,191,0.0,0.0,85,0.00,,---,0.00,VWS V13.01,2013-12-20 06:07:00,
2013-12-20 01:12:00,35.2,31.1,30.01,South,191,0.0,0.0,85,0.00,,---,0.00,VWS V13.01,2013-12-20 06:12:00,
2013-12-20 01:17:00,35.2,31.1,30.02,South,191,0.0,0.0,85,0.00,,---,0.00,VWS V13.01,2013-12-20 06:17:00,
2013-12-20 01:22:00,35.2,31.1,30.02,South,191,0.0,0.0,85,0.00,,---,0.00,VWS V13.01,2013-12-20 06:22:00,
2013-12-20 01:27:00,35.1,31.0,30.02,South,191,0.0,0.0,85,0.00,,---,0.00,VWS V13.01,2013-12-20 06:27:00,
2013-12-20 01:32:00,35.0,31.0,30.02,South,191,0.0,0.0,85,0.00,,---,0.00,VWS V13.01,2013-12-20 06:32:00,
2013-12-20 01:37:00,34.9,30.9,30.02,South,191,0.0,0.0,85,0.00,,---,0.00,VWS V13.01,2013-12-20 06:37:00,
2013-12-20 01:42:00,34.9,30.9,30.02,South,191,2.0,2.0,85,0.00,,---,0.00,VWS V13.01,2013-12-20 06:42:00,
2013-12-20 01:47:00,34.9,30.6,30.02,South,191,1.0,4.0,84,0.00,,---,0.00,VWS V13.01,2013-12-20 06:47:00,
2013-12-20 01:52:00,35.5,30.3,30.02,South,191,2.0,4.0,81,0.00,,---,0.00,VWS V13.01,2013-12-20 06:52:00,
2013-12-20 01:57:00,36.2,30.0,30.02,SSW,193,1.0,4.0,78,0.00,,---,0.00,VWS V13.01,2013-12-20 06:57:00,
2013-12-20 02:02:00,37.2,30.4,30.02,SSW,193,1.0,3.0,76,0.00,,---,0.00,VWS V13.01,2013-12-20 07:02:00,
2013-12-20 02:07:00,38.4,30.5,30.02,SSW,195,1.0,3.0,73,0.00,,---,0.00,VWS V13.01,2013-12-20 07:07:00,
2013-12-20 02:12:00,39.4,30.8,30.02,SSW,213,3.0,4.0,71,0.00,,---,0.00,VWS V13.01,2013-12-20 07:12:00,
2013-12-20 02:17:00,40.4,30.7,30.02,SW,221,2.0,4.0,68,0.00,,---,0.00,VWS V13.01,2013-12-20 07:17:00,
2013-12-20 02:22:00,41.2,30.7,30.02,SW,221,2.0,4.0,66,0.00,,---,0.00,VWS V13.01,2013-12-20 07:22:00,
2013-12-20 02:27:00,41.9,30.6,30.02,SW,228,3.0,6.0,64,0.00,,---,0.00,VWS V13.01,2013-12-20 07:27:00,
2013-12-20 02:32:00,42.4,30.3,30.02,SW,223,4.0,5.0,62,0.00,,---,0.00,VWS V13.01,2013-12-20 07:32:00,
2013-12-20 02:37:00,43.2,30.7,30.02,SW,222,3.0,5.0,61,0.00,,---,0.00,VWS V13.01,2013-12-20 07:37:00,
2013-12-20 02:42:00,43.7,30.3,30.02,SW,221,4.0,5.0,59,0.00,,---,0.00,VWS V13.01,2013-12-20 07:42:00,
2013-12-20 02:47:00,44.3,30.5,30.02,SSW,213,2.0,6.0,58,0.00,,---,0.00,VWS V13.01,2013-12-20 07:47:00,
2013-12-20 02:52:00,44.6,30.8,30.02,SW,227,2.0,5.0,58,0.00,,---,0.00,VWS V13.01,2013-12-20 07:52:00,
2013-12-20 02:57:00,45.0,30.7,30.02,SW,225,3.0,6.0,57,0.00,,---,0.00,VWS V13.01,2013-12-20 07:57:00,
2013-12-20 03:02:00,45.4,30.2,30.01,WSW,241,5.0,5.0,55,0.00,,---,0.00,VWS V13.01,2013-12-20 08:02:00,
2013-12-20 03:07:00,45.7,30.5,30.01,SW,234,4.0,7.0,55,0.00,,---,0.00,VWS V13.01,2013-12-20 08:07:00,
2013-12-20 03:12:00,46.0,30.3,30.01,SW,227,5.0,8.0,54,0.00,,---,0.00,VWS V13.01,2013-12-20 08:12:00,
2013-12-20 03:17:00,46.5,30.3,30.01,SW,232,7.0,10.0,53,0.00,,---,0.00,VWS V13.01,2013-12-20 08:17:00,
2013-12-20 03:22:00,47.2,30.0,30.01,WSW,241,7.0,8.0,51,0.00,,---,0.00,VWS V13.01,2013-12-20 08:22:00,
2013-12-20 03:27:00,47.9,30.2,30.01,WSW,239,7.0,10.0,50,0.00,,---,0.00,VWS V13.01,2013-12-20 08:27:00,
2013-12-20 03:32:00,48.3,30.0,30.01,SW,215,5.0,7.0,49,0.00,,---,0.00,VWS V13.01,2013-12-20 08:32:00,
2013-12-20 03:37:00,48.6,29.3,30.00,SW,219,8.0,11.0,47,0.00,,---,0.00,VWS V13.01,2013-12-20 08:37:00,
2013-12-20 03:42:00,49.1,29.8,30.00,SSW,213,7.0,10.0,47,0.00,,---,0.00,VWS V13.01,2013-12-20 08:42:00,
2013-12-20 03:47:00,49.4,29.5,30.00,SW,231,8.0,10.0,46,0.00,,---,0.00,VWS V13.01,2013-12-20 08:47:00,
2013-12-20 03:52:00,49.7,29.2,30.00,SSW,212,4.0,10.0,45,0.00,,---,0.00,VWS V13.01,2013-12-20 08:52:00,
2013-12-20 03:57:00,50.2,29.1,30.00,SW,231,7.0,11.0,44,0.00,,---,0.00,VWS V13.01,2013-12-20 08:57:00,
2013-12-20 04:02:00,50.5,28.9,30.00,SW,234,5.0,12.0,43,0.00,,---,0.00,VWS V13.01,2013-12-20 09:02:00,
2013-12-20 04:07:00,50.6,29.0,29.99,SSW,198,5.0,12.0,43,0.00,,---,0.00,VWS V13.01,2013-12-20 09:07:00,
2013-12-20 04:12:00,50.7,29.0,30.00,SW,216,5.0,11.0,43,0.00,,---,0.00,VWS V13.01,2013-12-20 09:12:00,
2013-12-20 04:17:00,50.7,29.0,30.00,SSW,209,5.0,11.0,43,0.00,,---,0.00,VWS V13.01,2013-12-20 09:17:00,
2013-12-20 04:22:00,50.7,29.0,30.00,SW,220,7.0,11.0,43,0.00,,---,0.00,VWS V13.01,2013-12-20 09:22:00,
2013-12-20 04:27:00,50.7,29.0,30.00,SSW,197,7.0,11.0,43,0.00,,---,0.00,VWS V13.01,2013-12-20 09:27:00,
2013-12-20 04:32:00,50.8,29.1,30.00,SW,222,6.0,10.0,43,0.00,,---,0.00,VWS V13.01,2013-12-20 09:32:00,
2013-12-20 04:37:00,50.8,28.5,30.00,SSW,209,5.0,11.0,42,0.00,,---,0.00,VWS V13.01,2013-12-20 09:37:00,
2013-12-20 04:42:00,51.0,28.7,29.99,SSW,212,7.0,12.0,42,0.00,,---,0.00,VWS V13.01,2013-12-20 09:42:00,
2013-12-20 04:47:00,51.0,28.7,30.00,SW,226,7.0,12.0,42,0.00,,---,0.00,VWS V13.01,2013-12-20 09:47:00,
2013-12-20 04:52:00,51.0,28.7,30.00,SW,225,6.0,9.0,42,0.00,,---,0.00,VWS V13.01,2013-12-20 09:52:00,
2013-12-20 04:57:00,51.1,28.2,30.00,WSW,241,6.0,12.0,41,0.00,,---,0.00,VWS V13.01,2013-12-20 09:57:00,
2013-12-20 05:02:00,51.3,28.4,29.99,SW,228,9.0,10.0,41,0.00,,---,0.00,VWS V13.01,2013-12-20 10:02:00,
2013-12-20 05:07:00,51.3,28.4,29.99,SW,219,7.0,14.0,41,0.00,,---,0.00,VWS V13.01,2013-12-20 10:07:00,
2013-12-20 05:12:00,51.4,28.5,29.99,SSW,198,7.0,11.0,41,0.00,,---,0.00,VWS V13.01,2013-12-20 10:12:00,
2013-12-20 05:17:00,51.5,28.6,29.99,SW,232,7.0,16.0,41,0.00,,---,0.00,VWS V13.01,2013-12-20 10:17:00,
2013-12-20 05:22:00,51.6,28.1,29.99,WSW,246,8.0,12.0,40,0.00,,---,0.00,VWS V13.01,2013-12-20 10:22:00,
2013-12-20 05:27:00,51.6,28.7,29.99,SW,220,6.0,14.0,41,0.00,,---,0.00,VWS V13.01,2013-12-20 10:27:00,
2013-12-20 05:32:00,51.7,28.8,29.99,SSW,199,6.0,14.0,41,0.00,,---,0.00,VWS V13.01,2013-12-20 10:32:00,
2013-12-20 05:37:00,51.6,28.7,29.99,SW,232,6.0,14.0,41,0.00,,---,0.00,VWS V13.01,2013-12-20 10:37:00,
2013-12-20 05:42:00,51.6,28.1,29.98,SSW,206,6.0,14.0,40,0.00,,---,0.00,VWS V13.01,2013-12-20 10:42:00,
2013-12-20 05:47:00,51.6,28.7,29.98,South,186,11.0,14.0,41,0.00,,---,0.00,VWS V13.01,2013-12-20 10:47:00,
2013-12-20 05:52:00,51.5,28.6,29.98,SW,224,6.0,9.0,41,0.00,,---,0.00,VWS V13.01,2013-12-20 10:52:00,
2013-12-20 05:57:00,51.4,28.5,29.98,SSW,209,4.0,13.0,41,0.00,,---,0.00,VWS V13.01,2013-12-20 10:57:00,
2013-12-20 06:02:00,51.2,28.9,29.98,SW,217,5.0,13.0,42,0.00,,---,0.00,VWS V13.01,2013-12-20 11:02:00,
2013-12-20 06:07:00,51.2,28.9,29.98,SW,221,6.0,13.0,42,0.00,,---,0.00,VWS V13.01,2013-12-20 11:07:00,
2013-12-20 06:12:00,51.1,28.8,29.98,SW,235,8.0,10.0,42,0.00,,---,0.00,VWS V13.01,2013-12-20 11:12:00,
2013-12-20 06:17:00,51.2,29.5,29.98,SW,228,7.0,10.0,43,0.00,,---,0.00,VWS V13.01,2013-12-20 11:17:00,
2013-12-20 06:22:00,51.2,29.5,29.98,SW,224,6.0,10.0,43,0.00,,---,0.00,VWS V13.01,2013-12-20 11:22:00,
2013-12-20 06:27:00,51.2,29.5,29.98,SSW,198,7.0,12.0,43,0.00,,---,0.00,VWS V13.01,2013-12-20 11:27:00,
2013-12-20 06:32:00,51.4,29.7,29.98,SSW,198,4.0,12.0,43,0.00,,---,0.00,VWS V13.01,2013-12-20 11:32:00,
2013-12-20 06:37:00,51.5,29.8,29.98,SW,215,9.0,12.0,43,0.00,,---,0.00,VWS V13.01,2013-12-20 11:37:00,
2013-12-20 06:42:00,51.5,30.3,29.97,SW,221,6.0,11.0,44,0.00,,---,0.00,VWS V13.01,2013-12-20 11:42:00,
2013-12-20 06:47:00,51.6,29.9,29.97,SSW,213,7.0,16.0,43,0.00,,---,0.00,VWS V13.01,2013-12-20 11:47:00,
2013-12-20 06:52:00,51.8,30.0,29.97,SW,228,9.0,13.0,43,0.00,,---,0.00,VWS V13.01,2013-12-20 11:52:00,
2013-12-20 06:57:00,51.9,30.1,29.97,SW,215,11.0,16.0,43,0.00,,---,0.00,VWS V13.01,2013-12-20 11:57:00,
2013-12-20 07:02:00,52.1,30.3,29.97,SW,236,6.0,14.0,43,0.00,,---,0.00,VWS V13.01,2013-12-20 12:02:00,
2013-12-20 07:07:00,52.1,30.3,29.96,SW,225,6.0,14.0,43,0.00,,---,0.00,VWS V13.01,2013-12-20 12:07:00,
2013-12-20 07:12:00,52.0,30.2,29.96,SW,230,8.0,16.0,43,0.00,,---,0.00,VWS V13.01,2013-12-20 12:12:00,
2013-12-20 07:17:00,52.0,30.2,29.96,SW,233,7.0,16.0,43,0.00,,---,0.00,VWS V13.01,2013-12-20 12:17:00,
2013-12-20 07:22:00,51.9,30.1,29.96,SW,222,9.0,13.0,43,0.00,,---,0.00,VWS V13.01,2013-12-20 12:22:00,
2013-12-20 07:27:00,52.0,30.2,29.96,SW,219,8.0,15.0,43,0.00,,---,0.00,VWS V13.01,2013-12-20 12:27:00,
2013-12-20 07:32:00,52.0,30.8,29.95,SSW,213,10.0,13.0,44,0.00,,---,0.00,VWS V13.01,2013-12-20 12:32:00,
2013-12-20 07:37:00,51.9,30.7,29.95,SW,234,8.0,13.0,44,0.00,,---,0.00,VWS V13.01,2013-12-20 12:37:00,
2013-12-20 07:42:00,51.8,30.6,29.95,SSW,196,6.0,10.0,44,0.00,,---,0.00,VWS V13.01,2013-12-20 12:42:00,
2013-12-20 07:47:00,51.8,30.6,29.95,SW,225,6.0,13.0,44,0.00,,---,0.00,VWS V13.01,2013-12-20 12:47:00,
2013-12-20 07:52:00,51.7,31.1,29.95,SSW,203,6.0,13.0,45,0.00,,---,0.00,VWS V13.01,2013-12-20 12:52:00,
2013-12-20 07:57:00,51.8,31.1,29.95,SW,227,12.0,13.0,45,0.00,,---,0.00,VWS V13.01,2013-12-20 12:57:00,
2013-12-20 08:02:00,51.8,31.1,29.95,SSW,202,5.0,12.0,45,0.00,,---,0.00,VWS V13.01,2013-12-20 13:02:00,
2013-12-20 08:07:00,51.9,31.2,29.95,WSW,246,9.0,12.0,45,0.00,,---,0.00,VWS V13.01,2013-12-20 13:07:00,
2013-12-20 08:12:00,51.9,31.8,29.95,SW,227,7.0,10.0,46,0.00,,---,0.00,VWS V13.01,2013-12-20 13:12:00,
2013-12-20 08:17:00,52.0,31.9,29.95,SW,225,11.0,12.0,46,0.00,,---,0.00,VWS V13.01,2013-12-20 13:17:00,
2013-12-20 08:22:00,52.1,32.0,29.95,SW,221,9.0,10.0,46,0.00,,---,0.00,VWS V13.01,2013-12-20 13:22:00,
2013-12-20 08:27:00,52.1,32.0,29.95,WSW,238,9.0,11.0,46,0.00,,---,0.00,VWS V13.01,2013-12-20 13:27:00,
2013-12-20 08:32:00,52.3,32.2,29.95,SW,219,8.0,13.0,46,0.00,,---,0.00,VWS V13.01,2013-12-20 13:32:00,
2013-12-20 08:37:00,52.4,32.2,29.95,WSW,244,9.0,13.0,46,0.00,,---,0.00,VWS V13.01,2013-12-20 13:37:00,
2013-12-20 08:42:00,52.6,32.4,29.95,SSW,203,5.0,10.0,46,0.00,,---,0.00,VWS V13.01,2013-12-20 13:42:00,
2013-12-20 08:47:00,52.7,32.5,29.95,SSW,205,5.0,11.0,46,0.00,,---,0.00,VWS V13.01,2013-12-20 13:47:00,
2013-12-20 08:52:00,52.8,32.6,29.95,SSW,209,5.0,10.0,46,0.00,,---,0.00,VWS V13.01,2013-12-20 13:52:00,
2013-12-20 08:57:00,52.9,32.7,29.95,SSW,205,5.0,16.0,46,0.00,,---,0.00,VWS V13.01,2013-12-20 13:57:00,
2013-12-20 09:02:00,53.0,32.8,29.95,SSE,165,8.0,15.0,46,0.00,,---,0.00,VWS V13.01,2013-12-20 14:02:00,
2013-12-20 09:07:00,53.2,33.5,29.95,SSW,202,7.0,15.0,47,0.00,,---,0.00,VWS V13.01,2013-12-20 14:07:00,
2013-12-20 09:12:00,53.4,33.2,29.95,SW,227,11.0,13.0,46,0.00,,---,0.00,VWS V13.01,2013-12-20 14:12:00,
2013-12-20 09:17:00,53.6,33.3,29.95,SSW,213,9.0,15.0,46,0.00,,---,0.00,VWS V13.01,2013-12-20 14:17:00,
2013-12-20 09:22:00,53.8,34.1,29.95,SSW,200,7.0,13.0,47,0.00,,---,0.00,VWS V13.01,2013-12-20 14:22:00,
2013-12-20 09:27:00,53.9,34.2,29.95,SSW,212,8.0,15.0,47,0.00,,---,0.00,VWS V13.01,2013-12-20 14:27:00,
2013-12-20 09:32:00,54.0,34.2,29.95,SSW,205,8.0,14.0,47,0.00,,---,0.00,VWS V13.01,2013-12-20 14:32:00,
2013-12-20 09:37:00,54.2,33.9,29.95,SSW,204,6.0,16.0,46,0.00,,---,0.00,VWS V13.01,2013-12-20 14:37:00,
2013-12-20 09:42:00,54.4,34.6,29.95,SW,219,7.0,15.0,47,0.00,,---,0.00,VWS V13.01,2013-12-20 14:42:00,
2013-12-20 09:47:00,54.7,34.9,29.95,SW,217,12.0,15.0,47,0.00,,---,0.00,VWS V13.01,2013-12-20 14:47:00,
2013-12-20 09:52:00,55.0,35.2,29.95,SW,236,13.0,14.0,47,0.00,,---,0.00,VWS V13.01,2013-12-20 14:52:00,
2013-12-20 09:57:00,55.3,35.4,29.96,WSW,258,9.0,18.0,47,0.00,,---,0.00,VWS V13.01,2013-12-20 14:57:00,
2013-12-20 10:02:00,55.5,35.6,29.96,SW,227,12.0,14.0,47,0.00,,---,0.00,VWS V13.01,2013-12-20 15:02:00,
2013-12-20 10:07:00,55.7,35.8,29.96,SW,219,9.0,15.0,47,0.00,,---,0.00,VWS V13.01,2013-12-20 15:07:00,
2013-12-20 10:12:00,55.8,36.4,29.96,SW,217,11.0,12.0,48,0.00,,---,0.00,VWS V13.01,2013-12-20 15:12:00,
2013-12-20 10:17:00,55.8,35.9,29.96,SSW,211,10.0,18.0,47,0.00,,---,0.00,VWS V13.01,2013-12-20 15:17:00,
2013-12-20 10:22:00,55.7,36.3,29.96,SW,228,10.0,13.0,48,0.00,,---,0.00,VWS V13.01,2013-12-20 15:22:00,
2013-12-20 10:27:00,55.7,36.3,29.96,SW,231,8.0,14.0,48,0.00,,---,0.00,VWS V13.01,2013-12-20 15:27:00,
2013-12-20 10:32:00,55.7,36.8,29.96,SSW,205,7.0,13.0,49,0.00,,---,0.00,VWS V13.01,2013-12-20 15:32:00,
2013-12-20 10:37:00,55.7,36.8,29.96,WSW,248,9.0,15.0,49,0.00,,---,0.00,VWS V13.01,2013-12-20 15:37:00,
2013-12-20 10:42:00,55.7,36.8,29.96,SSW,199,7.0,15.0,49,0.00,,---,0.00,VWS V13.01,2013-12-20 15:42:00,
2013-12-20 10:47:00,55.8,37.5,29.96,SSW,209,7.0,15.0,50,0.00,,---,0.00,VWS V13.01,2013-12-20 15:47:00,
2013-12-20 10:52:00,55.8,37.5,29.96,SSW,211,6.0,19.0,50,0.00,,---,0.00,VWS V13.01,2013-12-20 15:52:00,
2013-12-20 10:57:00,55.9,38.0,29.96,SSW,193,9.0,19.0,51,0.00,,---,0.00,VWS V13.01,2013-12-20 15:57:00,
2013-12-20 11:02:00,55.9,38.0,29.95,SW,214,6.0,13.0,51,0.00,,---,0.00,VWS V13.01,2013-12-20 16:02:00,
2013-12-20 11:07:00,55.8,38.5,29.95,SSW,195,8.0,13.0,52,0.00,,---,0.00,VWS V13.01,2013-12-20 16:07:00,
2013-12-20 11:12:00,55.8,38.9,29.95,SW,216,8.0,13.0,53,0.00,,---,0.00,VWS V13.01,2013-12-20 16:12:00,
2013-12-20 11:17:00,55.8,39.4,29.95,SSW,196,12.0,19.0,54,0.00,,---,0.00,VWS V13.01,2013-12-20 16:17:00,
2013-12-20 11:22:00,55.8,39.4,29.95,SW,228,13.0,13.0,54,0.00,,---,0.00,VWS V13.01,2013-12-20 16:22:00,
2013-12-20 11:27:00,56.0,39.6,29.95,SSW,213,10.0,17.0,54,0.00,,---,0.00,VWS V13.01,2013-12-20 16:27:00,
2013-12-20 11:32:00,56.2,40.3,29.95,SSW,200,5.0,11.0,55,0.00,,---,0.00,VWS V13.01,2013-12-20 16:32:00,
2013-12-20 11:37:00,56.2,40.3,29.95,SW,217,10.0,12.0,55,0.00,,---,0.00,VWS V13.01,2013-12-20 16:37:00,
2013-12-20 11:42:00,56.4,40.9,29.94,SSW,206,8.0,16.0,56,0.00,,---,0.00,VWS V13.01,2013-12-20 16:42:00,
2013-12-20 11:47:00,56.6,41.1,29.94,SSW,205,7.0,18.0,56,0.00,,---,0.00,VWS V13.01,2013-12-20 16:47:00,
2013-12-20 11:52:00,56.8,41.8,29.94,South,184,10.0,16.0,57,0.00,,---,0.00,VWS V13.01,2013-12-20 16:52:00,
2013-12-20 11:57:00,56.9,41.8,29.94,SSW,212,10.0,17.0,57,0.00,,---,0.00,VWS V13.01,2013-12-20 16:57:00,
2013-12-20 12:02:00,56.9,41.8,29.94,SW,223,7.0,15.0,57,0.00,,---,0.00,VWS V13.01,2013-12-20 17:02:00,
2013-12-20 12:07:00,56.9,41.8,29.93,WSW,242,9.0,18.0,57,0.00,,---,0.00,VWS V13.01,2013-12-20 17:07:00,
2013-12-20 12:12:00,57.0,41.9,29.93,SSW,197,12.0,15.0,57,0.00,,---,0.00,VWS V13.01,2013-12-20 17:12:00,
2013-12-20 12:17:00,56.9,41.8,29.93,SSW,209,10.0,16.0,57,0.00,,---,0.00,VWS V13.01,2013-12-20 17:17:00,
2013-12-20 12:22:00,57.0,41.9,29.92,SW,226,12.0,15.0,57,0.00,,---,0.00,VWS V13.01,2013-12-20 17:22:00,
2013-12-20 12:27:00,57.1,42.0,29.92,SSW,210,7.0,15.0,57,0.00,,---,0.00,VWS V13.01,2013-12-20 17:27:00,
2013-12-20 12:32:00,57.4,41.8,29.92,SW,225,10.0,15.0,56,0.00,,---,0.00,VWS V13.01,2013-12-20 17:32:00,
2013-12-20 12:37:00,57.8,42.2,29.92,SW,225,12.0,16.0,56,0.00,,---,0.00,VWS V13.01,2013-12-20 17:37:00,
2013-12-20 12:42:00,57.9,42.3,29.92,SW,215,5.0,17.0,56,0.00,,---,0.00,VWS V13.01,2013-12-20 17:42:00,
2013-12-20 12:47:00,57.9,42.3,29.92,SW,221,9.0,17.0,56,0.00,,---,0.00,VWS V13.01,2013-12-20 17:47:00,
2013-12-20 12:52:00,57.9,42.3,29.92,SW,233,8.0,16.0,56,0.00,,---,0.00,VWS V13.01,2013-12-20 17:52:00,
2013-12-20 12:57:00,57.9,42.3,29.91,WSW,247,7.0,16.0,56,0.00,,---,0.00,VWS V13.01,2013-12-20 17:57:00,
2013-12-20 13:02:00,57.9,42.8,29.92,WSW,240,14.0,21.0,57,0.00,,---,0.00,VWS V13.01,2013-12-20 18:02:00,
2013-12-20 13:07:00,57.8,42.7,29.91,SW,219,14.0,21.0,57,0.00,,---,0.00,VWS V13.01,2013-12-20 18:07:00,
2013-12-20 13:12:00,57.6,43.0,29.91,SSW,200,14.0,19.0,58,0.00,,---,0.00,VWS V13.01,2013-12-20 18:12:00,
2013-12-20 13:17:00,57.4,42.8,29.91,SW,222,15.0,19.0,58,0.00,,---,0.00,VWS V13.01,2013-12-20 18:17:00,
2013-12-20 13:22:00,57.0,44.1,29.91,SW,216,7.0,18.0,62,0.00,,---,0.00,VWS V13.01,2013-12-20 18:22:00,
2013-12-20 13:27:00,56.2,44.6,29.91,SW,224,5.0,18.0,65,0.00,,---,0.00,VWS V13.01,2013-12-20 18:27:00,
2013-12-20 13:32:00,55.6,44.4,29.91,WSW,240,3.0,10.0,66,0.00,,---,0.00,VWS V13.01,2013-12-20 18:32:00,
2013-12-20 13:37:00,55.3,44.2,29.91,SW,234,2.0,10.0,66,0.00,,---,0.00,VWS V13.01,2013-12-20 18:37:00,
2013-12-20 13:42:00,55.1,44.0,29.91,WSW,254,10.0,10.0,66,0.00,,---,0.00,VWS V13.01,2013-12-20 18:42:00,
2013-12-20 13:47:00,55.2,44.8,29.91,SSW,205,6.0,11.0,68,0.01,,---,0.01,VWS V13.01,2013-12-20 18:47:00,
2013-12-20 13:52:00,55.0,45.0,29.90,SW,227,11.0,14.0,69,0.01,,---,0.01,VWS V13.01,2013-12-20 18:52:00,
2013-12-20 13:57:00,54.5,44.9,29.90,SW,226,5.0,16.0,70,0.02,,---,0.02,VWS V13.01,2013-12-20 18:57:00,
2013-12-20 14:02:00,53.9,45.5,29.89,SW,223,8.0,9.0,73,0.02,,---,0.02,VWS V13.01,2013-12-20 19:02:00,
2013-12-20 14:07:00,53.5,45.8,29.90,SW,223,6.0,9.0,75,0.02,,---,0.02,VWS V13.01,2013-12-20 19:07:00,
2013-12-20 14:12:00,53.1,45.4,29.90,SW,219,3.0,7.0,75,0.02,,---,0.02,VWS V13.01,2013-12-20 19:12:00,
2013-12-20 14:17:00,52.9,45.5,29.90,SW,230,3.0,7.0,76,0.02,,---,0.02,VWS V13.01,2013-12-20 19:17:00,
2013-12-20 14:22:00,52.8,45.5,29.90,SW,229,3.0,5.0,76,0.02,,---,0.02,VWS V13.01,2013-12-20 19:22:00,
2013-12-20 14:27:00,52.6,45.3,29.89,SW,214,3.0,6.0,76,0.02,,---,0.02,VWS V13.01,2013-12-20 19:27:00,
2013-12-20 14:32:00,52.6,45.3,29.90,SW,214,5.0,5.0,76,0.02,,---,0.02,VWS V13.01,2013-12-20 19:32:00,
2013-12-20 14:33:00,52.6,45.3,29.90,SSW,210,5.0,5.0,76,0.02,,---,0.02,VWS V13.01,2013-12-20 19:33:00,
2013-12-20 14:38:00,52.5,45.2,29.90,SW,220,5.0,9.0,76,0.02,,---,0.02,VWS V13.01,2013-12-20 19:38:00,
2013-12-20 14:43:00,52.5,45.8,29.90,SW,224,8.0,9.0,78,0.02,,---,0.02,VWS V13.01,2013-12-20 19:43:00,
2013-12-20 14:48:00,52.2,45.9,29.89,West,274,2.0,10.0,79,0.02,,---,0.02,VWS V13.01,2013-12-20 19:48:00,
2013-12-20 14:53:00,52.0,46.0,29.89,West,266,3.0,6.0,80,0.02,,---,0.03,VWS V13.01,2013-12-20 19:53:00,
2013-12-20 14:58:00,51.8,46.2,29.89,SW,227,4.0,6.0,81,0.02,,---,0.03,VWS V13.01,2013-12-20 19:58:00,
2013-12-20 15:03:00,51.6,46.3,29.90,WSW,240,3.0,7.0,82,0.01,,---,0.03,VWS V13.01,2013-12-20 20:03:00,
2013-12-20 15:08:00,51.4,46.4,29.90,SW,232,2.0,7.0,83,0.01,,---,0.03,VWS V13.01,2013-12-20 20:08:00,
2013-12-20 15:13:00,51.1,46.8,29.90,SW,235,0.0,4.0,85,0.02,,---,0.04,VWS V13.01,2013-12-20 20:13:00,
2013-12-20 15:18:00,50.9,46.6,29.89,West,265,0.0,4.0,85,0.02,,---,0.04,VWS V13.01,2013-12-20 20:18:00,
2013-12-20 15:23:00,50.7,46.7,29.89,West,265,0.0,1.0,86,0.02,,---,0.04,VWS V13.01,2013-12-20 20:23:00,
2013-12-20 15:28:00,50.5,46.8,29.89,West,265,0.0,1.0,87,0.02,,---,0.04,VWS V13.01,2013-12-20 20:28:00,
2013-12-20 15:33:00,50.4,46.7,29.89,West,266,1.0,1.0,87,0.02,,---,0.04,VWS V13.01,2013-12-20 20:33:00,
2013-12-20 15:38:00,50.3,46.9,29.89,West,265,0.0,1.0,88,0.02,,---,0.04,VWS V13.01,2013-12-20 20:38:00,
2013-12-20 15:43:00,50.2,46.8,29.90,West,266,1.0,1.0,88,0.02,,---,0.04,VWS V13.01,2013-12-20 20:43:00,
2013-12-20 15:48:00,50.1,46.7,29.90,West,265,2.0,2.0,88,0.02,,---,0.04,VWS V13.01,2013-12-20 20:48:00,
2013-12-20 15:53:00,50.0,46.9,29.90,West,265,0.0,1.0,89,0.02,,---,0.04,VWS V13.01,2013-12-20 20:53:00,
2013-12-20 15:58:00,49.9,47.1,29.90,West,265,0.0,2.0,90,0.02,,---,0.04,VWS V13.01,2013-12-20 20:58:00,
2013-12-20 16:03:00,49.9,46.8,29.90,West,265,0.0,2.0,89,0.01,,---,0.04,VWS V13.01,2013-12-20 21:03:00,
2013-12-20 16:08:00,49.8,47.0,29.91,West,265,0.0,2.0,90,0.01,,---,0.04,VWS V13.01,2013-12-20 21:08:00,
2013-12-20 16:13:00,49.8,47.0,29.91,West,265,1.0,2.0,90,0.01,,---,0.04,VWS V13.01,2013-12-20 21:13:00,
2013-12-20 16:18:00,49.7,46.9,29.91,South,174,1.0,3.0,90,0.01,,---,0.04,VWS V13.01,2013-12-20 21:18:00,
2013-12-20 16:23:00,49.6,46.8,29.90,South,174,1.0,2.0,90,0.00,,---,0.04,VWS V13.01,2013-12-20 21:23:00,
2013-12-20 16:28:00,49.6,46.8,29.90,South,174,1.0,2.0,90,0.00,,---,0.04,VWS V13.01,2013-12-20 21:28:00,
2013-12-20 16:33:00,49.5,47.0,29.90,South,174,1.0,1.0,91,0.00,,---,0.04,VWS V13.01,2013-12-20 21:33:00,
2013-12-20 16:38:00,49.5,47.0,29.89,South,174,0.0,2.0,91,0.00,,---,0.04,VWS V13.01,2013-12-20 21:38:00,
2013-12-20 16:43:00,49.4,46.6,29.90,South,174,0.0,1.0,90,0.00,,---,0.04,VWS V13.01,2013-12-20 21:43:00,
2013-12-20 16:48:00,49.4,46.6,29.90,South,174,0.0,1.0,90,0.00,,---,0.04,VWS V13.01,2013-12-20 21:48:00,
2013-12-20 16:53:00,49.4,46.6,29.90,South,174,0.0,0.0,90,0.00,,---,0.04,VWS V13.01,2013-12-20 21:53:00,
2013-12-20 16:58:00,49.3,46.8,29.89,South,174,0.0,0.0,91,0.00,,---,0.04,VWS V13.01,2013-12-20 21:58:00,
2013-12-20 17:03:00,49.3,46.8,29.89,South,174,0.0,0.0,91,0.00,,---,0.04,VWS V13.01,2013-12-20 22:03:00,
2013-12-20 17:08:00,49.3,46.8,29.90,South,174,0.0,1.0,91,0.00,,---,0.04,VWS V13.01,2013-12-20 22:08:00,
2013-12-20 17:13:00,49.2,46.7,29.90,South,174,0.0,2.0,91,0.00,,---,0.04,VWS V13.01,2013-12-20 22:13:00,
2013-12-20 17:18:00,49.2,46.7,29.90,SSE,164,1.0,3.0,91,0.00,,---,0.04,VWS V13.01,2013-12-20 22:18:00,
2013-12-20 17:23:00,49.5,47.0,29.89,SW,216,11.0,11.0,91,0.00,,---,0.04,VWS V13.01,2013-12-20 22:23:00,
2013-12-20 17:28:00,51.2,48.1,29.89,SW,233,6.0,18.0,89,0.00,,---,0.04,VWS V13.01,2013-12-20 22:28:00,
2013-12-20 17:33:00,52.6,48.8,29.89,SW,230,6.0,14.0,87,0.00,,---,0.04,VWS V13.01,2013-12-20 22:33:00,
2013-12-20 17:38:00,53.7,49.0,29.90,SW,218,12.0,19.0,84,0.00,,---,0.04,VWS V13.01,2013-12-20 22:38:00,
2013-12-20 17:43:00,54.6,49.2,29.90,SW,217,11.0,22.0,82,0.00,,---,0.04,VWS V13.01,2013-12-20 22:43:00,
2013-12-20 17:48:00,55.1,49.4,29.90,SSW,196,9.0,22.0,81,0.00,,---,0.04,VWS V13.01,2013-12-20 22:48:00,
2013-12-20 17:53:00,55.4,49.7,29.90,SW,226,11.0,24.0,81,0.00,,---,0.04,VWS V13.01,2013-12-20 22:53:00,
2013-12-20 17:58:00,55.4,49.3,29.90,SSW,207,11.0,24.0,80,0.00,,---,0.04,VWS V13.01,2013-12-20 22:58:00,
2013-12-20 18:03:00,55.4,49.3,29.91,SW,221,8.0,20.0,80,0.00,,---,0.04,VWS V13.01,2013-12-20 23:03:00,
2013-12-20 18:08:00,55.3,49.2,29.90,SW,224,5.0,20.0,80,0.00,,---,0.04,VWS V13.01,2013-12-20 23:08:00,
2013-12-20 18:13:00,55.4,49.3,29.90,SW,224,19.0,21.0,80,0.00,,---,0.04,VWS V13.01,2013-12-20 23:13:00,
2013-12-20 18:18:00,55.4,49.3,29.90,South,188,7.0,21.0,80,0.00,,---,0.04,VWS V13.01,2013-12-20 23:18:00,
2013-12-20 18:23:00,55.2,49.5,29.91,SSW,208,6.0,20.0,81,0.00,,---,0.04,VWS V13.01,2013-12-20 23:23:00,
2013-12-20 18:28:00,55.0,49.9,29.91,SW,229,10.0,20.0,83,0.00,,---,0.04,VWS V13.01,2013-12-20 23:28:00,
2013-12-20 18:33:00,54.6,49.9,29.91,SW,222,7.0,13.0,84,0.01,,---,0.05,VWS V13.01,2013-12-20 23:33:00,
2013-12-20 18:38:00,54.1,49.7,29.92,SW,216,8.0,17.0,85,0.02,,---,0.06,VWS V13.01,2013-12-20 23:38:00,
2013-12-20 18:43:00,53.8,50.0,29.91,SSW,202,7.0,13.0,87,0.02,,---,0.06,VWS V13.01,2013-12-20 23:43:00,
2013-12-20 18:48:00,53.4,49.9,29.91,SSW,198,7.0,15.0,88,0.03,,---,0.07,VWS V13.01,2013-12-20 23:48:00,
2013-12-20 18:53:00,53.1,50.0,29.92,SW,220,6.0,11.0,89,0.04,,---,0.08,VWS V13.01,2013-12-20 23:53:00,
2013-12-20 18:58:00,52.8,49.7,29.91,SW,232,9.0,12.0,89,0.04,,---,0.08,VWS V13.01,2013-12-20 23:58:00,
2013-12-20 19:03:00,52.7,49.5,29.92,SSW,206,5.0,14.0,89,0.04,,---,0.08,VWS V13.01,2013-12-21 00:03:00,
2013-12-20 19:08:00,52.6,49.8,29.92,SSW,196,7.0,14.0,90,0.04,,---,0.08,VWS V13.01,2013-12-21 00:08:00,
2013-12-20 19:13:00,52.7,49.5,29.91,SW,227,15.0,15.0,89,0.04,,---,0.08,VWS V13.01,2013-12-21 00:13:00,
2013-12-20 19:18:00,52.7,49.5,29.91,SW,226,10.0,15.0,89,0.04,,---,0.08,VWS V13.01,2013-12-21 00:18:00,
2013-12-20 19:23:00,52.8,49.7,29.92,SSW,205,10.0,12.0,89,0.04,,---,0.08,VWS V13.01,2013-12-21 00:23:00,
2013-12-20 19:28:00,52.9,49.5,29.92,SW,236,12.0,14.0,88,0.04,,---,0.08,VWS V13.01,2013-12-21 00:28:00,
2013-12-20 19:33:00,53.1,49.7,29.92,SW,229,9.0,15.0,88,0.03,,---,0.08,VWS V13.01,2013-12-21 00:33:00,
2013-12-20 19:38:00,53.3,49.8,29.92,SW,229,15.0,17.0,88,0.03,,---,0.08,VWS V13.01,2013-12-21 00:38:00,
2013-12-20 19:43:00,53.3,49.8,29.92,SW,219,12.0,12.0,88,0.02,,---,0.08,VWS V13.01,2013-12-21 00:43:00,
2013-12-20 19:48:00,53.2,49.7,29.92,SSW,209,10.0,13.0,88,0.03,,---,0.09,VWS V13.01,2013-12-21 00:48:00,
2013-12-20 19:53:00,53.1,49.7,29.93,South,186,12.0,15.0,88,0.01,,---,0.09,VWS V13.01,2013-12-21 00:53:00,
2013-12-20 19:58:00,53.1,49.7,29.93,SW,219,10.0,15.0,88,0.01,,---,0.09,VWS V13.01,2013-12-21 00:58:00,
2013-12-20 20:03:00,53.1,49.7,29.93,SW,228,9.0,16.0,88,0.01,,---,0.09,VWS V13.01,2013-12-21 01:03:00,
2013-12-20 20:08:00,53.1,49.7,29.93,SW,233,15.0,16.0,88,0.01,,---,0.09,VWS V13.01,2013-12-21 01:08:00,
2013-12-20 20:13:00,53.2,49.4,29.93,WSW,240,11.0,18.0,87,0.01,,---,0.09,VWS V13.01,2013-12-21 01:13:00,
2013-12-20 20:18:00,53.2,49.4,29.93,SSW,207,7.0,18.0,87,0.01,,---,0.09,VWS V13.01,2013-12-21 01:18:00,
2013-12-20 20:23:00,53.2,49.4,29.92,SSW,213,7.0,16.0,87,0.01,,---,0.09,VWS V13.01,2013-12-21 01:23:00,
2013-12-20 20:28:00,53.2,49.4,29.92,WSW,239,10.0,16.0,87,0.01,,---,0.09,VWS V13.01,2013-12-21 01:28:00,
2013-12-20 20:33:00,53.1,49.3,29.92,SW,221,13.0,15.0,87,0.01,,---,0.09,VWS V13.01,2013-12-21 01:33:00,
2013-12-20 20:38:00,53.1,49.3,29.92,SSW,201,7.0,15.0,87,0.01,,---,0.09,VWS V13.01,2013-12-21 01:38:00,
2013-12-20 20:43:00,53.1,49.3,29.92,SW,217,8.0,14.0,87,0.01,,---,0.09,VWS V13.01,2013-12-21 01:43:00,
2013-12-20 20:48:00,53.2,49.4,29.92,SW,220,7.0,15.0,87,0.01,,---,0.09,VWS V13.01,2013-12-21 01:48:00,
2013-12-20 20:53:00,53.2,49.4,29.92,SW,228,9.0,13.0,87,0.00,,---,0.09,VWS V13.01,2013-12-21 01:53:00,
2013-12-20 20:58:00,53.2,49.4,29.92,SW,228,7.0,13.0,87,0.00,,---,0.09,VWS V13.01,2013-12-21 01:58:00,
2013-12-20 21:03:00,53.2,49.4,29.91,SW,224,6.0,11.0,87,0.00,,---,0.09,VWS V13.01,2013-12-21 02:03:00,
2013-12-20 21:08:00,53.2,49.4,29.91,SSW,203,8.0,11.0,87,0.00,,---,0.09,VWS V13.01,2013-12-21 02:08:00,
2013-12-20 21:13:00,53.2,49.4,29.92,SSW,213,7.0,11.0,87,0.00,,---,0.09,VWS V13.01,2013-12-21 02:13:00,
2013-12-20 21:18:00,53.1,49.3,29.91,WSW,238,4.0,11.0,87,0.00,,---,0.09,VWS V13.01,2013-12-21 02:18:00,
2013-12-20 21:23:00,53.2,49.4,29.91,SW,216,3.0,12.0,87,0.00,,---,0.09,VWS V13.01,2013-12-21 02:23:00,
2013-12-20 21:28:00,53.1,49.0,29.91,SSW,205,9.0,12.0,86,0.00,,---,0.09,VWS V13.01,2013-12-21 02:28:00,
2013-12-20 21:33:00,53.0,48.9,29.91,SSW,206,6.0,10.0,86,0.00,,---,0.09,VWS V13.01,2013-12-21 02:33:00,
2013-12-20 21:38:00,52.9,48.8,29.91,SSW,200,6.0,10.0,86,0.00,,---,0.09,VWS V13.01,2013-12-21 02:38:00,
2013-12-20 21:43:00,52.9,48.8,29.91,SSW,213,6.0,9.0,86,0.00,,---,0.09,VWS V13.01,2013-12-21 02:43:00,
2013-12-20 21:48:00,52.8,48.7,29.91,WSW,241,4.0,10.0,86,0.00,,---,0.09,VWS V13.01,2013-12-21 02:48:00,
2013-12-20 21:53:00,52.9,48.8,29.91,SSW,212,5.0,11.0,86,0.00,,---,0.09,VWS V13.01,2013-12-21 02:53:00,
2013-12-20 21:58:00,53.0,48.9,29.91,WSW,237,6.0,11.0,86,0.00,,---,0.09,VWS V13.01,2013-12-21 02:58:00,
2013-12-20 22:03:00,53.0,48.9,29.91,SW,225,8.0,10.0,86,0.00,,---,0.09,VWS V13.01,2013-12-21 03:03:00,
2013-12-20 22:08:00,53.0,48.9,29.90,SW,221,7.0,10.0,86,0.00,,---,0.09,VWS V13.01,2013-12-21 03:08:00,
2013-12-20 22:13:00,53.0,48.9,29.90,SW,221,5.0,13.0,86,0.00,,---,0.09,VWS V13.01,2013-12-21 03:13:00,
2013-12-20 22:18:00,52.9,48.5,29.90,SSW,209,5.0,13.0,85,0.00,,---,0.09,VWS V13.01,2013-12-21 03:18:00,
2013-12-20 22:23:00,52.9,48.5,29.90,SW,232,6.0,10.0,85,0.00,,---,0.09,VWS V13.01,2013-12-21 03:23:00,
2013-12-20 22:28:00,52.9,48.5,29.90,SW,233,8.0,12.0,85,0.00,,---,0.09,VWS V13.01,2013-12-21 03:28:00,
2013-12-20 22:33:00,52.9,48.5,29.90,SSW,212,7.0,10.0,85,0.00,,---,0.09,VWS V13.01,2013-12-21 03:33:00,
2013-12-20 22:38:00,52.9,48.2,29.89,SW,224,6.0,11.0,84,0.00,,---,0.09,VWS V13.01,2013-12-21 03:38:00,
2013-12-20 22:43:00,53.0,48.3,29.90,SW,232,6.0,11.0,84,0.00,,---,0.09,VWS V13.01,2013-12-21 03:43:00,
2013-12-20 22:48:00,53.0,48.3,29.90,SW,225,6.0,11.0,84,0.00,,---,0.09,VWS V13.01,2013-12-21 03:48:00,
2013-12-20 22:53:00,53.0,48.3,29.90,SSW,211,6.0,12.0,84,0.00,,---,0.09,VWS V13.01,2013-12-21 03:53:00,
2013-12-20 22:58:00,53.3,48.3,29.90,SW,229,6.0,12.0,83,0.00,,---,0.09,VWS V13.01,2013-12-21 03:58:00,
2013-12-20 23:03:00,53.7,48.3,29.90,SW,214,5.0,12.0,82,0.00,,---,0.09,VWS V13.01,2013-12-21 04:03:00,
2013-12-20 23:08:00,54.1,48.7,29.90,SW,216,10.0,16.0,82,0.00,,---,0.09,VWS V13.01,2013-12-21 04:08:00,
2013-12-20 23:13:00,54.3,48.6,29.90,SSW,211,4.0,9.0,81,0.00,,---,0.09,VWS V13.01,2013-12-21 04:13:00,
2013-12-20 23:18:00,54.4,48.7,29.90,SW,223,8.0,10.0,81,0.00,,---,0.09,VWS V13.01,2013-12-21 04:18:00,
2013-12-20 23:23:00,54.4,48.7,29.90,SW,233,10.0,10.0,81,0.00,,---,0.09,VWS V13.01,2013-12-21 04:23:00,
2013-12-20 23:28:00,54.6,48.9,29.90,SW,216,6.0,11.0,81,0.00,,---,0.09,VWS V13.01,2013-12-21 04:28:00,
2013-12-20 23:33:00,54.7,48.7,29.89,SSW,200,6.0,12.0,80,0.00,,---,0.09,VWS V13.01,2013-12-21 04:33:00,
2013-12-20 23:38:00,54.8,48.8,29.90,SSW,213,5.0,12.0,80,0.00,,---,0.09,VWS V13.01,2013-12-21 04:38:00,
2013-12-20 23:43:00,54.8,48.8,29.89,SW,216,4.0,9.0,80,0.00,,---,0.09,VWS V13.01,2013-12-21 04:43:00,
2013-12-20 23:48:00,54.8,48.8,29.89,SSW,204,10.0,11.0,80,0.00,,---,0.09,VWS V13.01,2013-12-21 04:48:00,
2013-12-20 23:53:00,54.6,48.6,29.89,SW,230,8.0,9.0,80,0.00,,---,0.09,VWS V13.01,2013-12-21 04:53:00,
2013-12-20 23:58:00,54.7,48.7,29.89,SW,234,6.0,14.0,80,0.00,,---,0.09,VWS V13.01,2013-12-21 04:58:00,